Погода в Фергане

Погода в Фергане : погода сейчас, прогноз погоды и архив. Всё, что Вы хотите узнать о погоде в Фергане!

Поиск расширенной информации на нашем сайте:

Другие новости

Новости СМИ2

Главная страница сайта

Новости сайта

03.07.2017

Напоминаем, что на нашем специализированном сайте Метеоцентр.Азия вы можете получить высокодетализированные автоматические прогнозы погоды по пунктам России, СНГ и мира в авиационном формате (включающие направление и скорость ветра, видимость, явления погоды, количество и форму облачности, нижнюю и верхнюю границу облачности).


Погода в Фергане - сегодня

Время (UTC), дата Ветер
(°,м/с) 
Видим.   Явления Облачность Т
(°С)
Тd
(°С)
f(%) Тe
(°С)
Pmin
(гПа)
dP
(гПа)
Po
(мм)
O2
(г/м3)
Тmin Tmax R s Состояние
почвы
03 18.09.17 140 (ЮВ) 20000 м    9/0 средняя, верхняя 
[Ac cast|Ci sp]
+16.9 +11.5 70 +22  1015.5  1.1  712  268           
06 18.09.17 320 (СЗ) 20000 м    6/0 средняя, верхняя 
[Ac lent|Cs]
+27.2 +10.3 35 +30  1012.8  -0.3  712  259  +16         
09 18.09.17 010 (С) 10 км    5/0 верхняя 
[Cu hum|Cs]
+30.3 +10.9 30 +34  1011.4  -0.7  711  256           
12 18.09.17 310 (СЗ) 10 км    8/3 1000 м средняя, верхняя 
[Cu hum|Ac lent|Cs]
+28.7 +14.5 42 +38  1011.1  -0.5  711  256           
15 18.09.17 тихо ()   н/о    3/0 верхняя 
[Ci fib]
+19.8 +14.9 73 +30  1014.3  1.2  712  264    +30.4       
18 18.09.17 150 (ЮВ) н/о    ясно 
+19.4 +11.4 60 +25  1014.6  0.1  712  266    +30.4       
21 18.09.17 150 (ЮВ) н/о    ясно 
+17.2 +10.6 65 +22  1014.5  -0.6  712  268           
00 19.09.17 160 (Ю) н/о    ясно 
+16.7 +8.2 57 +18  1015.1  0.4  712  269           
03 19.09.17 160 (Ю) 20000 м    3/0 верхняя 
[Ci fib]
+18.9 +9.7 55 +22  1015.3  0.7  712  267           
06 19.09.17 тихо ()   10 км    3/1 1000 м верхняя 
[Cu hum|Ci sp]
+27.1 +10.2 35 +30  1013.3  -0.2  712  259  +16.5         
09 19.09.17 310 (СЗ) 10 км    3/1 1000 м верхняя 
[Cu hum|Ci sp]
+29.7 +11.4 32 +34  1011.1  -1.5  711  256           
12 19.09.17 300 (СЗ) 10 км    4/1 1000 м средняя, верхняя 
[Cu hum|Ac trans|Ci ing]
+29.3 +10.3 31 +32  1010.1  -1  710  257           
15 19.09.17 010 (С) н/о    ясно 
+19.8 +15.6 77 +32  1012.8  0.7  711  264    +30.5       
18 19.09.17 130 (ЮВ) н/о    ясно 
+17.9 +11.9 68 +24  1013.7  0.3  711  267    +30.5       
21 19.09.17 150 (ЮВ) н/о    ясно 
+17.1 +8.8 58 +20  1013.6  -0.8  711  268           
00 20.09.17 120 (ЮВ) н/о    ясно 
+16 +8.4 61 +17  1013.2  -0.5  710  269        мокрый или
старый снег
50-90% 
03 20.09.17 160 (Ю) 20000 м    ясно 
+18.7 +8.2 50 +20  1012.6  710  266  +15.8        сухая 
06 20.09.17 050 (СВ) 10 км    ясно 
+28.1 +9.4 31 +30  1009.6  -0.9  710  258  +15.8         
09 20.09.17 350 (С) 10 км    1/0 
[St]
+29.9 +9.7 29 +32  1006.8  -2.2  708  255           
12 20.09.17 320 (СЗ) 10 км    3/0 средняя, верхняя 
[Ac cuf|Ci fib]
+29.4 +11.2 32 +33  1005.9  -0.9  707  255           
15 20.09.17 тихо ()   н/о    ясно 
+19.9 +15.9 78 +32  1009.3  1.3  708  263    +30.6       
18 20.09.17 120 (ЮВ) н/о    ясно 
+18.4 +14 76 +28  1009.3  -0.3  708  264    +30.6       
21 20.09.17 110 (В) н/о    ясно 
+17.1 +11.4 69 +23  1009.3  -0.4  708  266           
00 21.09.17 тихо ()   н/о    ясно 
+14.7 +12 84 +20  1010.2  0.4  708  268           
03 21.09.17 120 (ЮВ) 10 км    3/0 средняя, верхняя 
[Ac cuf|Cc]
+18.3 +12 67 +25  1010.4  0.9  709  265           
Время (UTC), дата Ветер
(°,м/с) 
Видим.   Явления Облачность Т
(°С)
Тd
(°С)
f(%) Тe
(°С)
Pmin
(гПа)
dP
(гПа)
Po
(мм)
O2
(г/м3)
Тmin Tmax R s Состояние
почвы

Для получения пояснительной информации подведите курсор к названию столбца.

ПОГОДА в Фергане - архив

Всё, что Вы хотите узнать о погоде в Фергане - удобно и подробно!

Выберите нужную дату (начиная с 1 января 2015* года) и нажмите кнопку "Найти".
Будут отображены архивные сводки погоды по пункту Фергана, начиная с указанной даты.


Отображать данные в формате CSV (для использования в таблицах Excel)


Внимание! Наш архив погоды предназначен исключительно для личного некоммерческого использования в познавательных целях. Если Вам необходимы официальные справки о состоянии погоды (для производственных, юридических, коммерческих и т.п. целей), обращайтесь в органы Росгидромета.

*Примечание: данная дата относится к архиву по метеостанциям СССР (Россия, СНГ, Балтия).
Архив по метеостанциям Зарубежной Европы и Азии (кроме Китая) хранится 10 дней, по другим регионам земного шара (Китай, Африка, Америка, Австралия, Океания) - 1 день.

Фергана - район местоположения метеостанции


Название, широта, долгота, высота метеостанции:
Фергана 40.4°ш. 71.8°д. 605 м над ур. моря [Узбекистан]

Дополнительная информация

В oтличие oт бoльшинства пoгoдных сайтoв мы публикуем пoдрoбную метеoинфoрмацию в детальнoм прoфессиoнальнoм фoрмате.

Характеристики температуры и влажнoсти вoздуха измеряются на высoте 2 м в тени вдали oт зданий и деревьев.
Скoрoсть ветра измеряется на высoте 10 м (на урoвне рoста челoвека скoрoсть ветра ниже в 1.5-2 раза). Если метеoстанция нахoдится в гoрoде или в лесу, тo скoрoсть ветра занижена на 2-4 м/с пo сравнению с oткрытым местoм. Скoрoсть ветра над акватoриями крупных рек и oзёр, а также на вершинах хoлмoв на 2-5 м/с выше, чем в oбычных услoвиях.
Атмoсфернoе давление в разных тoчках местнoсти мoжет значительнo oтличаться oт давления на метеoстанции, в зависимoсти oт услoвий рельефа (при пoдъёме на 10 м давление пoнижается примернo на 1 мм рт.ст.).